Location: NJAA Observatory
(40.6819°N, 74.8979°W)
Time: 01:00:17
(UTC-04:00)

Cosmos 2237 Rocket - Visible Passes

Search period start: 29 September 2016 00:00
Search period end: 09 October 2016 00:00
Orbit: 835 x 850 km, 71.0° (Epoch: 28 September)

Date Brightness Start Highest point End Pass type
(mag) Time Alt. Az. Time Alt. Az. Time Alt. Az.
29 Sep 4.9 03:01:21 10° N 03:01:42 11° N 03:01:42 11° N visible
29 Sep4.604:56:10S04:56:10S04:43:23NNWvisible
29 Sep 4.6 19:37:11 10° WSW 19:41:41 24° NW 19:46:11 10° N visible
30 Sep 4.5 19:22:14 10° WSW 19:26:49 25° NW 19:31:24 10° N visible
01 Oct 4.5 19:07:17 10° WSW 19:11:57 26° NW 19:16:38 10° N visible
